Location: Sihaung
(22.8641°N, 94.0549°E)
Time: 12:50:24
(UTC+00:00)

COSMOS 2428 - Pass Details

Date: 03 March 2021
Orbit: 845 x 858 km, 70.9° (Epoch: 17 April)

Event Time Altitude Azimuth Distance (km) Brightness Sun altitude
Rises 12:21:34 0° 167° (SSE) 3,389 5.7 -8.5°
Reaches altitude 10° 12:24:27 10° 153° (SSE) 2,456 4.9 -9.2°
Maximum altitude 12:28:51 24° 102° (ESE) 1,695 3.7 -10.2°
Drops below altitude 10° 12:33:14 10° 51° (NE) 2,464 4.6 -11.2°
Enters shadow 12:35:23 - 40° (NE) 3,151 5.3 -11.7°
